オルバース彗星

13P/Olbers (2024)

English version
Home page
Updated on December 1, 2023

---------------------------------------------------------------------

・ プロフィール

検出日 2023年8月13日
検出光度 21.6等
検出者 A. Hale (Las Cumbres Observatory)

・ 写真集

・ 軌道要素

Epoch 2023 Sept. 13.0 TT = JDT 2460200.5                                        
T 2024 June 29.95221 TT                                 Rudenko                 
q   1.1752145            (2000.0)            P               Q                  
n   0.01418071     Peri.   64.39369     -0.60889245     -0.37158966             
a  16.9045642      Node    85.87459     +0.18579592     -0.92572696             
e   0.9304795      Incl.   44.64053     +0.77118731     -0.07036143             
P  69.5                                                                         
>From 26 observations 1956 Feb. 4-2023 Aug. 27, mean residual 0".6.              
     Nongravitational parameters A1 = -0.91, A2 = -1.1292.                      

・ 星図

・ 光度変化

        m1 = 4.5 + 5 logΔ + 22.0 log r  [ ,0]  (              〜2024年 6月29日)
        m1 = 5.0 + 5 logΔ + 15.0 log r  [0, ]  (2024年 6月29日〜              )

---------------------------------------------------------------------

軌道要素はM.P.E.C. 2023-Q150に掲載されたものです。
星図はステラナビゲータ Ver.10 (アストロアーツ) で作成したものです。
光度グラフはComet for Windowsで作成したものです。

---------------------------------------------------------------------

Copyright(C) Seiichi Yoshida (comet@aerith.net). All rights reserved.